CT2IRJ-11 Weather Reports


time (UTC)temp
F
wind
direction
speed
knots
gust
knots
rain 1hr
in
rain 24hr
in
rain mn
in
humidity
%
barometer
mb
20260507103329 69 307 1.7 1.7 0.00 0.00 0.00 54 1010.8
20260507102829 69 307 2.6 4.3 0.00 0.00 0.00 54 1010.8
20260507102330 65 306 0.9 0.9 0.00 0.00 0.00 57 1010.8
20260507101830 66 306 0.9 1.7 0.00 0.00 0.00 60 1010.8
20260507101329 70 306 2.6 2.6 0.00 0.00 0.00 54 1011.2
20260507100830 70 308 0.0 0.9 0.00 0.00 0.00 52 1010.8
20260507100330 68 307 0.9 0.9 0.00 0.00 0.00 57 1010.8
20260507095830 66 307 0.0 0.0 0.00 0.00 0.00 64 1010.8
20260507095329 64 306 0.9 0.9 0.00 0.00 0.00 66 1011.2
20260507094829 65 307 0.9 0.9 0.00 0.00 0.00 63 1010.8
20260507094330 64 306 0.0 0.0 0.00 0.00 0.00 67 1010.8
20260507093832 64 307 1.7 1.7 0.00 0.00 0.00 65 1010.8
20260507093330 64 306 1.7 2.6 0.00 0.00 0.00 68 1010.8
20260507092829 64 307 0.9 0.9 0.00 0.00 0.00 69 1010.5
20260507092330 64 307 1.7 4.3 0.00 0.00 0.00 70 1010.5
20260507091830 66 305 4.3 6.1 0.00 0.00 0.00 69 1010.5
20260507091330 66 307 0.9 0.9 0.00 0.00 0.00 68 1010.8
20260507090830 65 307 2.6 4.3 0.00 0.00 0.00 70 1011.2
20260507090330 66 307 0.0 0.9 0.00 0.00 0.00 66 1010.8
20260507085830 65 307 0.0 0.0 0.00 0.00 0.00 70 1010.5
20260507085329 66 307 0.0 0.0 0.00 0.00 0.00 68 1010.8
20260507084830 66 307 0.0 0.0 0.00 0.00 0.00 68 1010.5
20260507084329 65 307 0.0 0.0 0.00 0.00 0.00 68 1010.5
20260507083830 63 307 0.0 0.0 0.00 0.00 0.00 73 1010.8
20260507083329 62 307 0.9 0.9 0.00 0.00 0.00 76 1010.5
20260507082829 62 307 0.0 0.9 0.00 0.00 0.00 77 1010.8
20260507082330 62 305 2.6 4.3 0.00 0.00 0.00 78 1010.8
20260507081830 61 307 0.0 0.0 0.00 0.00 0.00 78 1010.5
20260507081329 60 306 0.9 1.7 0.00 0.00 0.00 80 1010.5
20260507080831 60 307 0.0 0.0 0.00 0.00 0.00 81 1010.8
20260507080329 60 307 2.6 4.3 0.00 0.00 0.00 82 1010.8
20260507075829 59 307 0.0 0.0 0.00 0.00 0.00 84 1010.5
20260507075329 58 306 0.9 0.9 0.00 0.00 0.00 85 1010.5
20260507074829 57 306 2.6 2.6 0.00 0.00 0.00 86 1010.8
20260507074329 57 306 2.6 2.6 0.00 0.00 0.00 87 1010.5
20260507073830 56 307 0.9 1.7 0.00 0.00 0.00 88 1010.8
20260507073330 55 306 1.7 1.7 0.00 0.00 0.00 88 1010.8
20260507072830 55 306 0.9 1.7 0.00 0.00 0.00 89 1010.5
20260507072329 55 306 1.7 2.6 0.00 0.00 0.00 89 1010.8
20260507071830 54 306 1.7 1.7 0.00 0.00 0.00 89 1010.5
20260507071329 54 307 0.9 1.7 0.00 0.00 0.00 90 1010.8
20260507070830 53 307 2.6 4.3 0.00 0.00 0.00 90 1010.8
20260507070329 53 306 1.7 1.7 0.00 0.00 0.00 90 1010.5
20260507065829 53 306 1.7 1.7 0.00 0.00 0.00 91 1010.5
20260507065330 52 306 1.7 2.6 0.00 0.00 0.00 91 1010.5
20260507064829 52 305 1.7 4.3 0.00 0.00 0.00 91 1010.5
20260507064330 51 307 0.9 1.7 0.00 0.00 0.00 92 1010.5
20260507063830 51 306 1.7 1.7 0.00 0.00 0.00 92 1010.2
20260507063329 50 306 0.9 0.9 0.00 0.00 0.00 93 1010.2
20260507062830 50 307 0.9 0.9 0.00 0.00 0.00 93 1010.2
20260507062329 49 307 0.0 0.0 0.00 0.00 0.00 93 1010.2
20260507061829 48 307 0.0 0.0 0.00 0.00 0.00 93 1009.8
20260507061329 48 307 0.0 0.0 0.00 0.00 0.00 93 1010.2
20260507060830 48 307 0.0 0.0 0.00 0.00 0.00 93 1010.2
20260507060333 48 307 0.0 0.0 0.00 0.00 0.00 93 1009.8
20260507055829 47 307 0.0 0.0 0.00 0.00 0.00 92 1009.8
20260507055329 47 307 0.0 0.0 0.00 0.00 0.00 92 1009.8
20260507054830 48 307 0.0 0.0 0.00 0.00 0.00 93 1009.8
20260507054329 48 307 0.0 0.0 0.00 0.00 0.00 93 1009.8
20260507053830 47 307 0.0 0.0 0.00 0.00 0.00 93 1009.5
20260507053330 46 307 0.0 0.0 0.00 0.00 0.00 92 1009.5
20260507052830 47 307 0.0 0.0 0.00 0.00 0.00 92 1009.5
20260507052329 47 307 0.0 0.0 0.00 0.00 0.00 92 1009.5
20260507051829 47 307 0.0 0.0 0.00 0.00 0.00 92 1009.8
20260507051330 47 307 0.0 0.0 0.00 0.00 0.00 92 1009.8
20260507050830 47 307 0.0 0.0 0.00 0.00 0.00 92 1009.8
20260507050329 47 307 0.0 0.0 0.00 0.00 0.00 92 1009.8
20260507045829 47 307 0.0 0.0 0.00 0.00 0.00 92 1009.8
20260507045329 47 307 0.0 0.0 0.00 0.00 0.00 92 1009.8
20260507044829 47 307 0.9 0.9 0.00 0.00 0.00 92 1009.8
20260507044329 48 307 0.0 0.0 0.00 0.00 0.00 92 1010.2
20260507043829 48 307 0.0 0.0 0.00 0.00 0.00 92 1009.8
20260507043331 48 307 0.0 0.0 0.00 0.00 0.00 92 1009.8
20260507042830 47 307 0.0 0.0 0.00 0.00 0.00 92 1010.2
20260507042330 47 307 0.0 0.0 0.00 0.00 0.00 92 1010.2
20260507041829 47 307 0.0 0.0 0.00 0.00 0.00 92 1010.2
20260507041329 47 307 0.0 0.0 0.00 0.00 0.00 92 1009.8
20260507040829 47 307 0.0 0.0 0.00 0.00 0.00 92 1010.5
20260507040330 48 307 0.0 0.0 0.00 0.00 0.00 92 1010.2
20260507035829 48 306 0.0 0.0 0.00 0.00 0.00 92 1010.2
20260507035329 48 306 0.0 0.0 0.00 0.00 0.00 92 1010.2
20260507034830 48 306 0.0 0.0 0.00 0.00 0.00 92 1010.5
20260507034329 48 306 0.0 0.0 0.00 0.00 0.00 91 1010.2
20260507033830 48 306 0.0 0.0 0.00 0.00 0.00 91 1010.5
20260507033329 48 306 0.0 0.0 0.00 0.00 0.00 91 1010.2
20260507032829 49 306 0.0 0.0 0.00 0.00 0.00 91 1010.5
20260507032330 49 306 0.0 0.0 0.00 0.00 0.00 91 1010.5
20260507031829 48 305 0.0 0.0 0.00 0.00 0.00 91 1010.5
20260507031329 48 305 0.0 0.0 0.00 0.00 0.00 91 1010.2
20260507030830 48 305 0.0 0.0 0.00 0.00 0.00 91 1010.5
20260507030330 48 305 0.0 0.0 0.00 0.00 0.00 91 1010.2
20260507025829 48 305 0.0 0.0 0.00 0.00 0.00 91 1010.5
20260507025329 48 306 0.0 0.0 0.00 0.00 0.00 91 1010.5
20260507024829 48 306 0.0 0.0 0.00 0.00 0.00 91 1010.5
20260507024329 48 307 0.0 0.0 0.00 0.00 0.00 91 1010.5
20260507023830 49 309 0.0 0.0 0.00 0.00 0.00 91 1010.5
20260507023330 49 311 0.0 0.0 0.00 0.00 0.00 91 1010.5
20260507022829 49 311 0.0 0.0 0.00 0.00 0.00 90 1010.5
20260507022330 49 312 0.0 0.0 0.00 0.00 0.00 90 1010.5
20260507021832 49 311 0.0 0.0 0.00 0.00 0.00 91 1010.8
20260507021329 50 312 0.0 0.0 0.00 0.00 0.00 90 1010.8
20260507020831 50 312 0.0 0.0 0.00 0.00 0.00 90 1010.5
20260507020330 50 312 0.0 0.0 0.00 0.00 0.00 90 1010.5
20260507015829 50 312 0.0 0.0 0.00 0.00 0.00 90 1010.5
20260507015330 50 312 0.0 0.0 0.00 0.00 0.00 90 1010.5
20260507014830 50 312 0.0 0.0 0.00 0.00 0.00 90 1010.5
20260507014330 50 312 0.0 0.0 0.00 0.00 0.00 90 1010.8
20260507013829 50 312 0.0 0.0 0.00 0.00 0.00 90 1010.8
20260507013329 50 312 0.0 0.0 0.00 0.00 0.00 90 1010.8
20260507012830 51 312 0.0 0.0 0.00 0.00 0.00 89 1010.8
20260507012329 51 312 0.0 0.0 0.00 0.00 0.00 89 1010.8
20260507011829 51 312 0.0 0.0 0.00 0.00 0.00 89 1010.8
20260507011330 51 312 0.0 0.0 0.00 0.00 0.00 89 1010.8
20260507010830 51 312 0.0 0.0 0.00 0.00 0.00 89 1010.8
20260507010329 51 312 0.0 0.0 0.00 0.00 0.00 89 1011.2
20260507005829 51 312 0.0 0.0 0.00 0.00 0.00 89 1010.8
20260507005330 52 312 0.0 0.0 0.00 0.00 0.00 89 1010.8
20260507004832 52 312 0.0 0.0 0.00 0.00 0.00 89 1011.2
20260507004335 52 312 0.0 0.0 0.00 0.00 0.00 89 1010.8
20260507003829 52 312 0.0 0.0 0.00 0.00 0.00 88 1010.8
20260507003329 52 312 0.0 0.0 0.00 0.00 0.00 88 1011.2
20260507002831 53 312 0.0 0.0 0.00 0.00 0.00 88 1011.2
20260507002332 53 312 0.0 0.0 0.00 0.00 0.00 87 1011.2
20260507001829 53 312 0.0 0.0 0.00 0.00 0.00 87 1011.2
20260507001330 53 312 0.0 0.0 0.00 0.00 0.00 87 1011.2
20260507000829 53 312 0.0 0.0 0.00 0.00 0.00 87 1011.2
20260507000329 53 312 0.0 0.0 0.00 0.00 0.00 87 1011.5
20260506235829 54 312 0.0 0.0 0.00 0.00 0.00 87 1011.2
20260506235329 54 313 0.9 0.9 0.00 0.00 0.00 86 1011.2
20260506234829 54 313 0.9 0.9 0.00 0.00 0.00 86 1011.5
20260506234329 54 313 0.9 0.9 0.00 0.00 0.00 86 1011.2
20260506233830 54 314 0.9 0.9 0.00 0.00 0.00 86 1011.2
20260506232332 55 316 0.0 0.0 0.00 0.00 0.00 83 1011.2
20260506231829 55 316 0.0 0.0 0.00 0.00 0.00 83 1011.2
20260506231330 55 316 0.0 0.0 0.00 0.00 0.00 83 1011.5
20260506230829 55 316 0.0 0.0 0.00 0.00 0.00 83 1011.2
20260506230329 55 316 0.0 0.0 0.00 0.00 0.00 83 1011.2
20260506225830 55 316 0.0 0.0 0.00 0.00 0.00 83 1011.2
20260506225329 55 316 0.0 0.0 0.00 0.00 0.00 83 1011.5
20260506224829 55 317 0.0 0.0 0.00 0.00 0.00 83 1011.2
20260506224330 55 316 0.0 0.9 0.00 0.00 0.00 83 1011.5
20260506223829 55 315 0.9 0.9 0.00 0.00 0.00 83 1011.5
20260506223330 55 316 0.0 0.9 0.00 0.00 0.00 83 1011.5
20260506222830 55 312 0.0 0.9 0.00 0.00 0.00 82 1011.2
20260506222329 55 320 0.0 0.0 0.00 0.00 0.00 82 1011.5
20260506221829 55 314 0.0 0.9 0.00 0.00 0.00 82 1011.5
20260506221330 55 314 0.9 0.9 0.00 0.00 0.00 82 1011.5
20260506220830 55 315 0.0 0.0 0.00 0.00 0.00 82 1011.9
20260506220330 56 315 0.0 0.9 0.00 0.00 0.00 81 1011.5
20260506215830 56 315 0.0 0.9 0.00 0.00 0.00 81 1011.5
20260506215329 56 315 0.9 1.7 0.00 0.00 0.00 81 1011.5
20260506214830 56 315 0.0 0.9 0.00 0.00 0.00 81 1011.5
20260506214330 56 316 0.9 1.7 0.00 0.00 0.00 80 1011.9
20260506213829 56 316 0.9 0.9 0.00 0.00 0.00 80 1011.5
20260506213329 56 316 0.0 0.0 0.00 0.00 0.00 80 1011.9
20260506212830 56 315 0.9 1.7 0.00 0.00 0.00 80 1011.9
20260506212329 56 316 0.0 0.9 0.00 0.00 0.00 80 1011.5
20260506211830 56 316 0.0 0.0 0.00 0.00 0.00 79 1011.5
20260506211329 56 316 0.0 0.9 0.00 0.00 0.00 79 1011.9
20260506210830 57 316 0.9 0.9 0.00 0.00 0.00 77 1011.2
20260506210330 57 316 0.9 0.9 0.00 0.00 0.00 77 1011.5
20260506205829 57 317 0.0 0.0 0.00 0.00 0.00 77 1011.5
20260506205331 57 320 0.9 0.9 0.00 0.00 0.00 77 1011.5
20260506204830 57 316 0.0 0.0 0.00 0.00 0.00 77 1011.5
20260506204331 58 316 0.9 0.9 0.00 0.00 0.00 76 1011.5
20260506203829 58 316 0.9 0.9 0.00 0.00 0.00 76 1011.5
20260506203330 58 317 0.0 0.9 0.00 0.00 0.00 75 1011.5
20260506202829 58 321 0.9 0.9 0.00 0.00 0.00 75 1011.5
20260506202330 58 322 0.9 0.9 0.00 0.00 0.00 74 1011.5
20260506201829 59 321 0.0 0.0 0.00 0.00 0.00 73 1011.2
20260506201330 59 318 0.0 0.9 0.00 0.00 0.00 71 1011.2
20260506200829 59 319 0.0 0.9 0.00 0.00 0.00 70 1011.2
20260506200330 59 315 0.9 0.9 0.00 0.00 0.00 68 1011.2
20260506195829 60 343 0.9 0.9 0.00 0.00 0.00 67 1011.2
20260506195329 60 313 0.9 0.9 0.00 0.00 0.00 67 1011.2
20260506194829 60 317 0.0 0.9 0.00 0.00 0.00 66 1011.2
20260506194330 60 316 0.0 0.0 0.00 0.00 0.00 65 1011.2
20260506193830 60 321 0.0 0.0 0.00 0.00 0.00 65 1011.2
20260506193330 61 317 0.9 0.9 0.00 0.00 0.00 64 1011.2
20260506192829 61 319 0.0 0.9 0.00 0.00 0.00 63 1011.2
20260506192330 61 315 0.9 1.7 0.00 0.00 0.00 62 1010.8
20260506191830 62 318 0.9 0.9 0.00 0.00 0.00 62 1011.2
20260506191330 62 310 0.9 1.7 0.00 0.00 0.00 61 1010.8
20260506190829 62 319 0.9 0.9 0.00 0.00 0.00 61 1010.8
20260506190330 63 351 2.6 4.3 0.00 0.00 0.00 60 1010.8
20260506185829 63 320 0.9 0.9 0.00 0.00 0.00 59 1010.5
20260506184851 64 327 0.9 1.7 0.00 0.00 0.00 58 1010.5
20260506184330 64 329 0.9 0.9 0.00 0.00 0.00 57 1010.5
20260506183831 64 327 0.0 0.0 0.00 0.00 0.00 56 1010.2
20260506183329 65 326 0.9 0.9 0.00 0.00 0.00 56 1010.5
20260506182830 66 330 0.9 0.9 0.00 0.00 0.00 55 1010.5
20260506182330 66 330 0.9 0.9 0.00 0.00 0.00 54 1010.5
20260506181829 66 341 0.9 0.9 0.00 0.00 0.00 52 1010.5
20260506181330 67 314 2.6 2.6 0.00 0.00 0.00 52 1010.5
20260506180830 67 303 0.0 0.9 0.00 0.00 0.00 51 1010.5
20260506180329 68 289 0.9 1.7 0.00 0.00 0.00 51 1010.5
20260506175830 68 308 1.7 1.7 0.00 0.00 0.00 49 1010.5
20260506175330 69 322 0.9 1.7 0.00 0.00 0.00 48 1010.5
20260506174829 69 345 0.0 0.9 0.00 0.00 0.00 48 1010.5
20260506174330 69 311 1.7 2.6 0.00 0.00 0.00 49 1010.5
20260506173830 70 310 2.6 5.2 0.00 0.00 0.00 47 1010.5
20260506173330 70 315 0.9 1.7 0.00 0.00 0.00 48 1010.5
20260506172830 71 310 0.9 2.6 0.00 0.00 0.00 47 1010.5
20260506172329 71 318 0.0 0.9 0.00 0.00 0.00 47 1010.8
20260506171830 72 310 0.9 1.7 0.00 0.00 0.00 47 1010.5
20260506171329 71 285 1.7 2.6 0.00 0.00 0.00 48 1010.5
20260506170830 73 299 0.9 1.7 0.00 0.00 0.00 47 1010.8
20260506170330 73 318 0.0 0.9 0.00 0.00 0.00 47 1010.5
20260506165829 74 275 0.9 1.7 0.00 0.00 0.00 47 1010.5
20260506165330 73 310 0.0 0.0 0.00 0.00 0.00 47 1010.8
20260506164829 73 303 2.6 5.2 0.00 0.00 0.00 46 1010.5
20260506164330 74 5 2.6 4.3 0.00 0.00 0.00 45 1010.8
20260506163829 73 307 1.7 1.7 0.00 0.00 0.00 45 1010.5
20260506163330 74 282 1.7 1.7 0.00 0.00 0.00 47 1010.5
20260506162829 73 272 1.7 1.7 0.00 0.00 0.00 47 1010.5
20260506162331 72 281 0.0 0.9 0.00 0.00 0.00 47 1010.5
20260506161829 74 282 0.9 0.9 0.00 0.00 0.00 46 1010.5
20260506161330 75 275 2.6 2.6 0.00 0.00 0.00 45 1010.5
20260506160831 75 276 2.6 4.3 0.00 0.00 0.00 47 1010.5
20260506160330 75 224 2.6 2.6 0.00 0.00 0.00 45 1010.5
20260506155829 75 219 1.7 1.7 0.00 0.00 0.00 46 1010.8
20260506155329 75 220 0.9 0.9 0.00 0.00 0.00 46 1010.8
20260506154830 75 228 0.9 0.9 0.00 0.00 0.00 44 1010.8
20260506154330 76 218 0.0 0.9 0.00 0.00 0.00 47 1010.8
20260506153829 75 224 4.3 6.1 0.00 0.00 0.00 47 1010.8
20260506153330 74 227 0.9 2.6 0.00 0.00 0.00 49 1010.5
20260506152830 75 221 2.6 2.6 0.00 0.00 0.00 49 1010.8
20260506152329 75 217 1.7 2.6 0.00 0.00 0.00 47 1010.8
20260506151830 74 217 2.6 2.6 0.00 0.00 0.00 49 1010.8
20260506151331 74 217 0.9 1.7 0.00 0.00 0.00 48 1011.2
20260506150829 73 211 2.6 2.6 0.00 0.00 0.00 51 1010.8
20260506150330 71 217 0.9 0.9 0.00 0.00 0.00 52 1011.2
20260506145829 70 216 2.6 2.6 0.00 0.00 0.00 53 1011.2
20260506144854 72 216 0.9 1.7 0.00 0.00 0.00 50 1011.2
20260506144330 74 214 0.9 0.9 0.00 0.00 0.00 47 1011.2
20260506143830 75 216 2.6 2.6 0.00 0.00 0.00 46 1011.5
20260506143329 71 219 1.7 2.6 0.00 0.00 0.00 50 1011.5
20260506142345 71 213 0.9 0.9 0.00 0.00 0.00 50 1011.9
20260506141830 71 215 0.9 1.7 0.00 0.00 0.00 50 1011.9
20260506141330 70 216 0.9 1.7 0.00 0.00 0.00 50 1011.9
20260506140830 70 215 0.0 0.0 0.00 0.00 0.00 51 1011.9
20260506140332 71 217 0.9 0.9 0.00 0.00 0.00 51 1011.9
20260506135830 70 216 1.7 1.7 0.00 0.00 0.00 49 1011.9
20260506135331 71 217 2.6 2.6 0.00 0.00 0.00 49 1012.2
20260506134829 72 217 1.7 1.7 0.00 0.00 0.00 47 1012.2
20260506134331 72 214 0.9 0.9 0.00 0.00 0.00 47 1012.2
20260506133830 72 222 2.6 4.3 0.00 0.00 0.00 46 1012.2
20260506133330 73 218 2.6 2.6 0.00 0.00 0.00 45 1011.9
20260506132830 73 218 0.9 1.7 0.00 0.00 0.00 44 1011.9
20260506132330 76 218 0.9 1.7 0.00 0.00 0.00 41 1012.2
20260506131830 74 218 0.9 1.7 0.00 0.00 0.00 46 1012.2
20260506131330 76 215 0.9 0.9 0.00 0.00 0.00 43 1012.5
20260506130829 75 217 2.6 2.6 0.00 0.00 0.00 43 1012.5
20260506130330 74 221 2.6 2.6 0.00 0.00 0.00 45 1012.5
20260506125829 75 219 3.5 6.1 0.00 0.00 0.00 41 1012.5
20260506125330 75 216 2.6 2.6 0.00 0.00 0.00 44 1012.2
20260506124830 76 215 0.9 1.7 0.00 0.00 0.00 42 1012.5
20260506124330 75 216 2.6 2.6 0.00 0.00 0.00 42 1012.9
20260506123830 73 213 0.0 0.9 0.00 0.00 0.00 44 1012.9
20260506123330 71 212 0.9 0.9 0.00 0.00 0.00 46 1012.9
20260506122829 72 212 0.9 1.7 0.00 0.00 0.00 47 1012.9
20260506122329 73 212 0.9 0.9 0.00 0.00 0.00 46 1012.9
20260506121830 73 209 0.9 1.7 0.00 0.00 0.00 44 1012.9
20260506121329 73 207 0.9 0.9 0.00 0.00 0.00 45 1013.2
20260506120831 73 201 0.9 0.9 0.00 0.00 0.00 45 1012.9
20260506120329 73 211 0.9 1.7 0.00 0.00 0.00 46 1013.2
20260506115830 75 210 0.9 0.9 0.00 0.00 0.00 44 1013.2
20260506115329 74 207 0.0 0.9 0.00 0.00 0.00 44 1013.2
20260506114830 71 208 0.0 0.9 0.00 0.00 0.00 50 1013.2
20260506114329 70 209 0.9 0.9 0.00 0.00 0.00 48 1013.2
20260506113829 71 208 0.0 0.0 0.00 0.00 0.00 46 1013.2
20260506113330 73 208 0.9 0.9 0.00 0.00 0.00 46 1013.2
20260506112829 72 209 0.9 0.9 0.00 0.00 0.00 49 1013.5
20260506112329 70 211 0.9 1.7 0.00 0.00 0.00 51 1013.5
20260506111829 73 208 0.0 0.9 0.00 0.00 0.00 47 1013.9
20260506111329 71 207 0.0 0.9 0.00 0.00 0.00 46 1013.5
20260506110830 73 208 1.7 2.6 0.00 0.00 0.00 47 1013.9
20260506110329 73 208 0.9 0.9 0.00 0.00 0.00 48 1013.5
20260506105829 72 209 0.9 0.9 0.00 0.00 0.00 50 1013.5
20260506105333 71 207 0.9 0.9 0.00 0.00 0.00 46 1013.5
20260506104831 71 207 0.0 0.0 0.00 0.00 0.00 50 1013.9
20260506104329 69 207 0.9 0.9 0.00 0.00 0.00 55 1013.9
20260506103829 71 207 0.9 0.9 0.00 0.00 0.00 54 1013.9